H1 CPF 2 NER 2023 3 10 9 069 01 glonass131 H2 1301901 9131 39155 2023 3 10 0 0 0 2023 3 13 23 45 0 900 1 1 0 0 0 1 H9 10 0 60013 0.00000 0 -16942032.231 10351757.422 -15926323.033 10 0 60013 900.00000 0 -15657949.536 8671990.660 -18095076.133 10 0 60013 1800.00000 0 -14375302.615 6691071.810 -19910056.439 10 0 60013 2700.00000 0 -13151050.396 4443202.956 -21335822.450 10 0 60013 3600.00000 0 -12036056.151 1973750.934 -22344598.189 10 0 60013 4500.00000 0 -11072942.996 -662406.930 -22916817.778 10 0 60013 5400.00000 0 -10294321.842 -3402940.230 -23041502.076 10 0 60013 6300.00000 0 -9721466.702 -6180438.618 -22716460.588 10 0 60013 7200.00000 0 -9363492.504 -8924999.931 -21948315.730 10 0 60013 8100.00000 0 -9217068.475 -11566923.876 -20752350.492 10 0 60013 9000.00000 0 -9266676.848 -14039397.859 -19152184.222 10 0 60013 9900.00000 0 -9485403.228 -16281062.545 -17179284.826 10 0 60013 10800.00000 0 -9836222.247 -18238350.498 -14872328.891 10 0 60013 11700.00000 0 -10273721.298 -19867501.574 -12276424.118 10 0 60013 12600.00000 0 -10746186.987 -21136172.919 -9442210.979 10 0 60013 13500.00000 0 -11197964.138 -22024579.034 -6424862.602 10 0 60013 14400.00000 0 -11571986.357 -22526117.461 -3283003.417 10 0 60013 15300.00000 0 -11812370.740 -22647457.278 -77568.390 10 0 60013 16200.00000 0 -11866967.388 -22408090.109 3129374.789 10 0 60013 17100.00000 0 -11689757.024 -21839365.423 6275817.967 10 0 60013 18000.00000 0 -11242997.043 -20983052.958 9300996.834 10 0 60013 18900.00000 0 -10499027.239 -19889494.096 12146545.634 10 0 60013 19800.00000 0 -9441660.943 -18615420.284 14757601.591 10 0 60013 20700.00000 0 -8067104.517 -17221529.597 17083839.708 10 0 60013 21600.00000 0 -6384367.496 -15769921.729 19080420.137 10 0 60013 22500.00000 0 -4415146.298 -14321496.843 20708832.097 10 0 60013 23400.00000 0 -2193185.586 -12933424.745 21937620.129 10 0 60013 24300.00000 0 236857.750 -11656787.648 22742980.437 10 0 60013 25200.00000 0 2821003.231 -10534492.641 23109217.106 10 0 60013 26100.00000 0 5497925.100 -9599539.195 23029050.016 10 0 60013 27000.00000 0 8201241.701 -8873712.788 22503768.437 10 0 60013 27900.00000 0 10862024.531 -8366758.857 21543226.499 10 0 60013 28800.00000 0 13411426.180 -8076072.069 20165679.078 10 0 60013 29700.00000 0 15783320.879 -7986915.183 18397459.130 10 0 60013 30600.00000 0 17916850.011 -8073160.225 16272500.096 10 0 60013 31500.00000 0 19758767.658 -8298523.141 13831709.859 10 0 60013 32400.00000 0 21265488.552 -8618242.368 11122205.610 10 0 60013 33300.00000 0 22404751.973 -8981132.664 8196421.965 10 0 60013 34200.00000 0 23156830.276 -9331929.062 5111107.704 10 0 60013 35100.00000 0 23515229.162 -9613822.540 1926229.358 10 0 60013 36000.00000 0 23486847.820 -9771079.819 -1296197.536 10 0 60013 36900.00000 0 23091589.876 -9751635.004 -4493326.328 10 0 60013 37800.00000 0 22361439.675 -9509540.984 -7602721.448 10 0 60013 38700.00000 0 21339041.654 -9007173.718 -10563598.860 10 0 60013 39600.00000 0 20075842.448 -8217092.569 -13318038.251 10 0 60013 40500.00000 0 18629874.697 -7123474.377 -15812140.766 10 0 60013 41400.00000 0 17063277.500 -5723057.284 -17997107.145 10 0 60013 42300.00000 0 15439660.118 -4025551.635 -19830212.831 10 0 60013 43200.00000 0 13821422.426 -2053498.575 -21275659.093 10 0 60013 44100.00000 0 12267147.394 158418.924 -22305282.167 10 0 60013 45000.00000 0 10829177.423 2564583.938 -22899105.778 10 0 60013 45900.00000 0 9551477.969 5110121.221 -23045726.166 10 0 60013 46800.00000 0 8467878.892 7732969.325 -22742522.605 10 0 60013 47700.00000 0 7600767.145 10366261.052 -21995690.327 10 0 60013 48600.00000 0 6960284.463 12940911.240 -20820096.682 10 0 60013 49500.00000 0 6544061.590 15388302.518 -19238965.113 10 0 60013 50400.00000 0 6337497.408 17642956.010 -17283395.045 10 0 60013 51300.00000 0 6314567.919 19645075.327 -14991729.068 10 0 60013 52200.00000 0 6439127.643 21342858.225 -12408781.651 10 0 60013 53100.00000 0 6666645.328 22694480.687 -9584946.229 10 0 60013 54000.00000 0 6946298.027 23669672.684 -6575199.524 10 0 60013 54900.00000 0 7223333.038 24250822.377 -3438023.642 10 0 60013 55800.00000 0 7441596.703 24433565.667 -234267.679 10 0 60013 56700.00000 0 7546122.836 24226839.555 2974028.804 10 0 60013 57600.00000 0 7485671.881 23652400.111 6124827.815 10 0 60013 58500.00000 0 7215114.690 22743827.743 9157278.102 10 0 60013 59400.00000 0 6697561.886 21545063.293 12012871.729 10 0 60013 60300.00000 0 5906150.845 20108537.223 14636551.365 10 0 60013 61200.00000 0 4825416.671 18492970.235 16977748.850 10 0 60013 62100.00000 0 3452190.811 16760936.438 18991337.172 10 0 60013 63000.00000 0 1795990.142 14976289.225 20638479.735 10 0 60013 63900.00000 0 -121120.024 13201555.092 21887362.614 10 0 60013 64800.00000 0 -2265184.489 11495401.570 22713797.470 10 0 60013 65700.00000 0 -4591512.926 9910282.230 23101684.784 10 0 60013 66600.00000 0 -7046285.588 8490354.616 23043329.158 10 0 60013 67500.00000 0 -9568546.602 7269756.086 22539600.543 10 0 60013 68400.00000 0 -12092505.659 6271308.361 21599937.484 10 0 60013 69300.00000 0 -14550056.014 5505704.626 20242190.806 10 0 60013 70200.00000 0 -16873407.344 4971213.688 18492308.650 10 0 60013 71100.00000 0 -18997726.429 4653914.909 16383866.353 10 0 60013 72000.00000 0 -20863677.249 4528455.879 13957447.510 10 0 60013 72900.00000 0 -22419755.107 4559303.130 11259885.413 10 0 60013 73800.00000 0 -23624316.754 4702435.255 8343377.075 10 0 60013 74700.00000 0 -24447220.073 4907408.747 5264485.057 10 0 60013 75600.00000 0 -24871002.409 5119710.266 2083045.159 10 0 60013 76500.00000 0 -24891545.451 5283295.974 -1138999.292 10 0 60013 77400.00000 0 -24518196.008 5343209.571 -4338813.525 10 0 60013 78300.00000 0 -23773335.191 5248166.244 -7453912.942 10 0 60013 79200.00000 0 -22691412.328 4952990.407 -10423404.317 10 0 60013 80100.00000 0 -21317483.312 4420800.650 -13189200.005 10 0 60013 81000.00000 0 -19705314.914 3624845.872 -15697178.961 10 0 60013 81900.00000 0 -17915135.749 2549911.395 -17898269.339 10 0 60013 82800.00000 0 -16011130.214 1193232.564 -19749429.143 10 0 60013 83700.00000 0 -14058782.997 -435125.204 -21214503.853 10 0 60013 84600.00000 0 -12122188.111 -2312437.597 -22264942.866 10 0 60013 85500.00000 0 -10261437.775 -4404037.377 -22880359.959 10 0 60014 0.00000 0 -8530202.612 -6664544.765 -23048926.705 10 0 60014 900.00000 0 -6973604.846 -9039561.116 -22767591.653 10 0 60014 1800.00000 0 -5626476.092 -11467750.538 -22042121.852 10 0 60014 2700.00000 0 -4512068.834 -13883224.809 -20886967.670 10 0 60014 3600.00000 0 -3641276.130 -16218127.392 -19324954.982 10 0 60014 4500.00000 0 -3012388.654 -18405308.415 -17386812.808 10 0 60014 5400.00000 0 -2611396.127 -20380977.948 -15110547.626 10 0 60014 6300.00000 0 -2412816.854 -22087226.657 -12540678.439 10 0 60014 7200.00000 0 -2381016.793 -23474309.136 -9727349.342 10 0 60014 8100.00000 0 -2471959.266 -24502595.944 -6725338.358 10 0 60014 9000.00000 0 -2635308.755 -25144114.783 -3592983.001 10 0 60014 9900.00000 0 -2816797.995 -25383618.937 -391044.277 10 0 60014 10800.00000 0 -2960757.327 -25219141.122 2818468.542 10 0 60014 11700.00000 0 -3012699.271 -24662012.393 5973489.753 10 0 60014 12600.00000 0 -2921849.815 -23736347.892 9013083.251 10 0 60014 13500.00000 0 -2643520.820 -22478022.974 11878600.986 10 0 60014 14400.00000 0 -2141225.171 -20933183.796 14514793.098 10 0 60014 15300.00000 0 -1388447.295 -19156355.046 16870850.209 10 0 60014 16200.00000 0 -369996.137 -17208223.297 18901359.956 10 0 60014 17100.00000 0 917115.244 -15153187.112 20567161.560 10 0 60014 18000.00000 0 2463300.019 -13056773.963 21836084.028 10 0 60014 18900.00000 0 4246553.964 -10983028.981 22683555.582 10 0 60014 19800.00000 0 6233132.888 -8991981.492 23093073.905 10 0 60014 20700.00000 0 8378725.256 -7137292.096 23056528.790 10 0 60014 21600.00000 0 10630074.253 -5464175.920 22574371.011 10 0 60014 22500.00000 0 12926985.325 -4007686.795 21655623.349 10 0 60014 23400.00000 0 15204639.261 -2791432.966 20317732.092 10 0 60014 24300.00000 0 17396117.992 -1826777.827 18586259.785 10 0 60014 25200.00000 0 19435040.789 -1112559.772 16494422.589 10 0 60014 26100.00000 0 21258202.979 -635344.298 14082478.439 10 0 60014 27000.00000 0 22808108.069 -370199.563 11396975.061 10 0 60014 27900.00000 0 24035287.364 -281964.739 8489869.893 10 0 60014 28800.00000 0 24900308.793 -326959.488 5417537.004 10 0 60014 29700.00000 0 25375388.718 -455063.676 2239678.929 10 0 60014 30600.00000 0 25445536.361 -612079.947 -981835.979 10 0 60014 31500.00000 0 25109179.829 -742278.788 -4184187.711 10 0 60014 32400.00000 0 24378244.513 -791016.925 -7304845.567 10 0 60014 33300.00000 0 23277678.141 -707315.897 -10282809.975 10 0 60014 34200.00000 0 21844440.778 -446288.574 -13059828.638 10 0 60014 35100.00000 0 20126001.467 28692.497 -15581560.766 10 0 60014 36000.00000 0 18178404.909 744180.211 -17798664.096 10 0 60014 36900.00000 0 16063990.554 1715271.482 -19667781.091 10 0 60014 37800.00000 0 13848861.647 2944720.372 -21152403.061 10 0 60014 38700.00000 0 11600212.628 4422585.230 -22223593.929 10 0 60014 39600.00000 0 9383629.241 6126425.836 -22860558.620 10 0 60014 40500.00000 0 7260476.469 8022042.578 -23051044.855 10 0 60014 41400.00000 0 5285485.043 10064726.094 -22791570.922 10 0 60014 42300.00000 0 3504638.212 12200963.807 -22087475.955 10 0 60014 43200.00000 0 1953446.768 14370530.280 -20952793.200 10 0 60014 44100.00000 0 655683.161 16508872.183 -19409950.447 10 0 60014 45000.00000 0 -377374.632 18549686.436 -17489305.441 10 0 60014 45900.00000 0 -1147160.918 20427582.495 -15228527.308 10 0 60014 46800.00000 0 -1667496.289 22080716.733 -12671838.008 10 0 60014 47700.00000 0 -1963735.370 23453288.754 -9869130.390 10 0 60014 48600.00000 0 -2071427.917 24497795.949 -6874981.572 10 0 60014 49500.00000 0 -2034552.987 25176953.448 -3747582.020 10 0 60014 50400.00000 0 -1903403.269 25465201.123 -547601.988 10 0 60014 51300.00000 0 -1732210.660 25349737.027 2662982.348 10 0 60014 52200.00000 0 -1576614.151 24831036.588 5822080.463 10 0 60014 53100.00000 0 -1491076.866 23922838.297 8868674.305 10 0 60014 54000.00000 0 -1526360.405 22651598.584 11743978.576 10 0 60014 54900.00000 0 -1727161.586 21055440.104 14392553.653 10 0 60014 55800.00000 0 -2130009.380 19182638.042 16763351.588 10 0 60014 56700.00000 0 -2761508.832 17089707.372 18810677.153 10 0 60014 57600.00000 0 -3637004.300 14839169.693 20495047.672 10 0 60014 58500.00000 0 -4759717.267 12497090.753 21783937.144 10 0 60014 59400.00000 0 -6120394.795 10130488.625 22652392.147 10 0 60014 60300.00000 0 -7697484.217 7804717.422 23083509.010 10 0 60014 61200.00000 0 -9457828.547 5580932.399 23068763.774 10 0 60014 62100.00000 0 -11357856.220 3513739.087 22608188.620 10 0 60014 63000.00000 0 -13345218.787 1649121.959 21710390.619 10 0 60014 63900.00000 0 -15360811.814 22737.350 20392411.003 10 0 60014 64800.00000 0 -17341098.281 -1341358.998 18679425.607 10 0 60014 65700.00000 0 -19220640.727 -2431496.505 16604289.712 10 0 60014 66600.00000 0 -20934738.891 -3248652.753 14206933.348 10 0 60014 67500.00000 0 -22422064.138 -3806182.417 11533615.960 10 0 60014 68400.00000 0 -23627180.883 -4129021.733 8636052.330 10 0 60014 69300.00000 0 -24502848.613 -4252400.164 5570424.690 10 0 60014 70200.00000 0 -25012006.233 -4220112.087 2396298.814 10 0 60014 71100.00000 0 -25129352.794 -4082420.599 -824535.459 10 0 60014 72000.00000 0 -24842455.101 -3893681.994 -4029276.395 10 0 60014 72900.00000 0 -24152332.381 -3709792.289 -7155350.607 10 0 60014 73800.00000 0 -23073490.456 -3585565.733 -10141655.449 10 0 60014 74700.00000 0 -21633401.589 -3572158.873 -12929777.042 10 0 60014 75600.00000 0 -19871450.313 -3714652.401 -15465157.655 10 0 60014 76500.00000 0 -17837388.963 -4049896.508 -17698187.081 10 0 60014 77400.00000 0 -15589368.187 -4604714.199 -19585194.274 10 0 60014 78300.00000 0 -13191626.281 -5394541.422 -21089317.908 10 0 60014 79200.00000 0 -10711936.060 -6422563.686 -22181237.371 10 0 60014 80100.00000 0 -8218918.313 -7679387.080 -22839749.078 10 0 60014 81000.00000 0 -5779336.340 -9143258.114 -23052176.628 10 0 60014 81900.00000 0 -3455486.379 -10780822.935 -22814607.231 10 0 60014 82800.00000 0 -1302793.995 -12548393.001 -22131950.731 10 0 60014 83700.00000 0 632282.960 -14393662.591 -21017821.480 10 0 60014 84600.00000 0 2313958.108 -16257804.328 -19494247.088 10 0 60014 85500.00000 0 3718357.594 -18077852.987 -17591211.666 10 0 60015 0.00000 0 4834249.189 -19789275.963 -15346044.673 10 0 60015 900.00000 0 5663232.907 -21328622.421 -12802667.971 10 0 60015 1800.00000 0 6219387.573 -22636137.310 -10010720.653 10 0 60015 2700.00000 0 6528394.116 -23658233.915 -7024576.239 10 0 60015 3600.00000 0 6626174.666 -24349719.912 -3902275.499 10 0 60015 4500.00000 0 6557108.567 -24675686.052 -704395.368 10 0 60015 5400.00000 0 6371902.850 -24612980.208 2507123.531 10 0 60015 6300.00000 0 6125208.467 -24151207.292 5670168.181 10 0 60015 7200.00000 0 5873083.413 -23293215.460 8723640.769 10 0 60015 8100.00000 0 5670409.386 -22055050.339 11608620.774 10 0 60015 9000.00000 0 5568369.774 -20465380.720 14269480.672 10 0 60015 9900.00000 0 5612093.620 -18564420.579 16654935.588 10 0 60015 10800.00000 0 5838562.834 -16402392.440 18719008.853 10 0 60015 11700.00000 0 6274868.867 -14037595.210 20421897.059 10 0 60015 12600.00000 0 6936890.659 -11534155.269 21730720.066 10 0 60015 13500.00000 0 7828448.570 -8959551.895 22620143.360 10 0 60015 14400.00000 0 8940969.870 -6382016.945 23072862.147 10 0 60015 15300.00000 0 10253680.823 -3867913.687 23079938.620 10 0 60015 16200.00000 0 11734319.322 -1479200.600 22640985.965 10 0 60015 17100.00000 0 13340341.040 728917.236 21764194.851 10 0 60015 18000.00000 0 15020571.976 2710053.523 20466200.501 10 0 60015 18900.00000 0 16717241.821 4428338.295 18771790.840 10 0 60015 19800.00000 0 18368316.518 5859677.284 16713458.854 10 0 60015 20700.00000 0 19910035.253 6992520.078 14330805.038 10 0 60015 21600.00000 0 21279547.672 7828103.833 11669798.716 10 0 60015 22500.00000 0 22417541.813 8380160.704 8781909.970 10 0 60015 23400.00000 0 23270752.270 8674099.472 5723126.960 10 0 60015 24300.00000 0 23794241.954 8745694.173 2552876.290 10 0 60015 25200.00000 0 23953359.246 8639333.780 -667133.247 10 0 60015 26100.00000 0 23725285.176 8405906.349 -3874120.794 10 0 60015 27000.00000 0 23100102.149 8100407.434 -7005472.852 10 0 60015 27900.00000 0 22081335.861 7779375.195 -9999986.177 10 0 60015 28800.00000 0 20685944.614 7498262.912 -12799087.599 10 0 60015 29700.00000 0 18943754.193 7308862.882 -15348004.505 10 0 60015 30600.00000 0 16896360.668 7256893.891 -17596860.534 10 0 60015 31500.00000 0 14595546.816 7379857.563 -19501672.673 10 0 60015 32400.00000 0 12101279.120 7705257.179 -21025228.248 10 0 60015 33300.00000 0 9479370.600 8249256.677 -22137823.201 10 0 60015 34200.00000 0 6798909.125 9015838.119 -22817846.308 10 0 60015 35100.00000 0 4129560.747 9996494.008 -23052197.712 10 0 60015 36000.00000 0 1538862.529 11170467.393 -22836533.966 10 0 60015 36900.00000 0 -910380.696 12505528.822 -22175335.756 10 0 60015 37800.00000 0 -3162486.386 13959256.005 -21081798.342 10 0 60015 38700.00000 0 -5170971.713 15480760.573 -19577548.604 10 0 60015 39600.00000 0 -6900232.880 17012787.305 -17692196.106 10 0 60015 40500.00000 0 -8326758.410 18494095.781 -15462728.953 10 0 60015 41400.00000 0 -9439828.762 19862022.857 -12932768.144 10 0 60015 42300.00000 0 -10241676.573 21055117.296 -10151696.802 10 0 60015 43200.00000 0 -10747104.797 22015735.563 -7173682.778 10 0 60015 44100.00000 0 -10982582.710 22692490.104 -4056614.901 10 0 60015 45000.00000 0 -10984861.331 23042448.317 -860974.408 10 0 60015 45900.00000 0 -10799169.543 23032991.487 2351336.117 10 0 60015 46800.00000 0 -10477068.986 22643257.620 5518183.707 10 0 60015 47700.00000 0 -10074059.307 21865109.800 8578393.368 10 0 60015 48600.00000 0 -9647034.886 20703591.461 11472911.948 10 0 60015 49500.00000 0 -9251699.499 19176851.149 14145926.574 10 0 60015 50400.00000 0 -8940046.397 17315540.924 16545917.958 10 0 60015 51300.00000 0 -8758007.972 15161713.786 18626630.402 10 0 60015 52200.00000 0 -8743371.815 12767265.420 20347942.047 10 0 60015 53100.00000 0 -8924048.848 10191983.688 21676620.726 10 0 60015 54000.00000 0 -9316764.814 7501284.668 22586952.707 10 0 60015 54900.00000 0 -9926229.338 4763726.428 23061233.662 10 0 60015 55800.00000 0 -10744817.599 2048400.537 23090113.166 10 0 60015 56700.00000 0 -11752779.097 -577693.728 22672786.201 10 0 60015 57600.00000 0 -12918966.867 -3052186.534 21817027.346 10 0 60015 58500.00000 0 -14202059.373 -5319683.162 20539065.574 10 0 60015 59400.00000 0 -15552227.145 -7333822.475 18863300.098 10 0 60015 60300.00000 0 -16913177.689 -9058963.456 16821860.229 10 0 60015 61200.00000 0 -18224495.981 -10471429.496 14454015.003 10 0 60015 62100.00000 0 -19424184.820 -11560257.687 11805441.212 10 0 60015 63000.00000 0 -20451299.882 -12327420.350 8927361.413 10 0 60015 63900.00000 0 -21248569.132 -12787507.693 5875566.547 10 0 60015 64800.00000 0 -21764885.655 -12966883.149 2709340.676 10 0 60015 65700.00000 0 -21957567.107 -12902345.383 -509691.959 10 0 60015 66600.00000 0 -21794283.840 -12639352.435 -3718774.941 10 0 60015 67500.00000 0 -21254571.128 -12229882.794 -6855258.220 10 0 60015 68400.00000 0 -20330858.175 -11730024.514 -9857841.434 10 0 60015 69300.00000 0 -19028967.160 -11197395.932 -12667795.471 10 0 60015 70200.00000 0 -17368058.400 -10688509.435 -15230135.969 10 0 60015 71100.00000 0 -15380021.779 -10256192.672 -17494723.245 10 0 60015 72000.00000 0 -13108338.891 -9947179.338 -19417264.736 10 0 60015 72900.00000 0 -10606463.403 -9799974.337 -20960198.336 10 0 60015 73800.00000 0 -7935788.207 -9843086.074 -22093437.857 10 0 60015 74700.00000 0 -5163285.837 -10093702.374 -22794965.106 10 0 60015 75600.00000 0 -2358922.552 -10556866.948 -23051256.770 10 0 60015 76500.00000 0 407044.103 -11225191.285 -22857538.128 10 0 60015 77400.00000 0 3066769.861 -12079113.418 -22217859.509 10 0 60015 78300.00000 0 5557416.607 -13087691.234 -21144995.418 10 0 60015 79200.00000 0 7823525.173 -14209895.009 -19660169.930 10 0 60015 80100.00000 0 9819069.727 -15396342.543 -17792615.677 10 0 60015 81000.00000 0 11509109.637 -16591401.626 -15578976.970 10 0 60015 81900.00000 0 12870972.360 -17735569.407 -13062570.685 10 0 60015 82800.00000 0 13894921.074 -18768026.985 -10292521.142 10 0 60015 83700.00000 0 14584282.894 -19629260.808 -7322787.396 10 0 60015 84600.00000 0 14955036.165 -20263640.380 -4211103.143 10 0 60015 85500.00000 0 15034877.960 -20621844.324 -1017850.743 10 0 60016 0.00000 0 14861814.327 -20663033.901 2195108.063 10 0 60016 900.00000 0 14482335.074 -20356684.220 5365623.879 10 0 60016 1800.00000 0 13949251.949 -19683998.104 8432446.956 10 0 60016 2700.00000 0 13319291.655 -18638845.267 11336393.923 10 0 60016 3600.00000 0 12650544.981 -17228188.981 14021468.654 10 0 60016 4500.00000 0 11999878.287 -15471983.587 16435919.164 10 0 60016 5400.00000 0 11420414.471 -13402547.612 18533212.062 10 0 60016 6300.00000 0 10959187.160 -11063438.248 20272907.987 10 0 60016 7200.00000 0 10655064.487 -8507872.849 21621423.288 10 0 60016 8100.00000 0 10537027.610 -5796761.041 22552665.185 10 0 60016 9000.00000 0 10622874.807 -2996426.393 23048529.600 10 0 60016 9900.00000 0 10918404.828 -176109.045 23099252.914 10 0 60016 10800.00000 0 11417114.037 2594650.562 22703611.014 10 0 60016 11700.00000 0 12100421.265 5248641.649 21868961.182 10 0 60016 12600.00000 0 12938413.026 7723520.489 20611124.681 10 0 60016 13500.00000 0 13891080.597 9964152.100 18954110.315 10 0 60016 14400.00000 0 14910000.126 11924660.294 16929681.827 10 0 60016 15300.00000 0 15940388.286 13570101.131 14576774.722 10 0 60016 16200.00000 0 16923449.780 14877689.554 11940771.030 10 0 60016 17100.00000 0 17798919.912 15837526.714 9072643.414 10 0 60016 18000.00000 0 18507696.155 16452795.792 6027983.107 10 0 60016 18900.00000 0 18994447.662 16739416.120 2865929.061 10 0 60016 19800.00000 0 19210091.417 16725168.329 -351981.648 10 0 60016 20700.00000 0 19114028.178 16448325.886 -3563019.621 10 0 60016 21600.00000 0 18676040.800 15955850.053 -6704500.730 10 0 60016 22500.00000 0 17877771.226 15301224.531 -9715029.796 10 0 60016 23400.00000 0 16713710.207 14542022.325 -12535723.823 10 0 60016 24300.00000 0 15191654.656 13737309.481 -15111388.473 10 0 60016 25200.00000 0 13332610.631 12944997.923 -17391622.220 10 0 60016 26100.00000 0 11170144.105 12219262.118 -19331824.150 10 0 60016 27000.00000 0 8749205.835 11608131.588 -20894083.665 10 0 60016 27900.00000 0 6124479.614 11151363.530 -22047933.166 10 0 60016 28800.00000 0 3358323.883 10878687.388 -22770947.998 10 0 60016 29700.00000 0 518394.218 10808496.663 -23049181.690 10 0 60016 30600.00000 0 -2324952.336 10947043.464 -22877428.287 10 0 60016 31500.00000 0 -5101361.035 11288169.207 -22259307.531 10 0 60016 32400.00000 0 -7743177.227 11813581.435 -21207172.595 10 0 60016 33300.00000 0 -10188024.975 12493663.067 -19741843.830 10 0 60016 34200.00000 0 -12381159.026 13288777.586 -17892175.658 10 0 60016 35100.00000 0 -14277493.031 14151012.612 -15694467.017 10 0 60016 36000.00000 0 -15843221.247 15026285.953 -13191728.827 10 0 60016 36900.00000 0 -17056968.643 15856723.360 -10432824.586 10 0 60016 37800.00000 0 -17910424.653 16583206.263 -7471502.428 10 0 60016 38700.00000 0 -18408437.716 17147981.316 -4365338.740 10 0 60016 39600.00000 0 -18568570.410 17497221.740 -1174614.809 10 0 60016 40500.00000 0 -18420137.339 17583433.183 2038851.238 10 0 60016 41400.00000 0 -18002769.208 17367604.055 5212894.617 10 0 60016 42300.00000 0 -17364565.605 16821011.461 8286193.589 10 0 60016 43200.00000 0 -16559915.478 15926608.661 11199436.779 10 0 60016 44100.00000 0 -15647077.209 14679937.454 13896446.993 10 0 60016 45000.00000 0 -14685619.357 13089528.602 16325241.721 10 0 60016 45900.00000 0 -13733828.128 11176774.214 18439011.986 10 0 60016 46800.00000 0 -12846188.378 8975277.369 20197002.916 10 0 60016 47700.00000 0 -12071041.495 6529705.136 21565281.218 10 0 60016 48600.00000 0 -11448516.054 3894190.957 22517376.684 10 0 60016 49500.00000 0 -11008815.965 1130350.176 23034786.849 10 0 60016 50400.00000 0 -10770936.476 -1695012.006 23107335.949 10 0 60016 51300.00000 0 -10741861.243 -4512408.541 22733381.450 10 0 60016 52200.00000 0 -10916274.454 -7252294.036 21919863.620 10 0 60016 53100.00000 0 -11276801.363 -9847698.058 20682195.842 10 0 60016 54000.00000 0 -11794769.178 -12236761.623 19043995.890 10 0 60016 54900.00000 0 -12431458.970 -14365073.310 17036660.835 10 0 60016 55800.00000 0 -13139798.859 -16187708.669 14698791.104 10 0 60016 56700.00000 0 -13866429.950 -17670887.860 12075471.995 10 0 60016 57600.00000 0 -14554060.275 -18793181.360 9217423.934 10 0 60016 58500.00000 0 -15144008.919 -19546211.621 6180035.810 10 0 60016 59400.00000 0 -15578833.432 -19934819.214 3022298.577 10 0 60016 60300.00000 0 -15804928.832 -19976684.362 -194340.915 10 0 60016 61200.00000 0 -15774986.600 -19701417.873 -3407183.478 10 0 60016 62100.00000 0 -15450207.042 -19149158.485 -6553514.193 10 0 60016 63000.00000 0 -14802168.097 -18368735.235 -9571846.384 10 0 60016 63900.00000 0 -13814267.997 -17415472.795 -12403146.470 10 0 60016 64800.00000 0 -12482677.236 -16348733.677 -14992013.348 10 0 60016 65700.00000 0 -10816756.474 -15229303.140 -17287786.661 10 0 60016 66600.00000 0 -8838920.282 -14116729.723 -19245559.855 10 0 60016 67500.00000 0 -6583950.799 -13066736.413 -20827076.139 10 0 60016 68400.00000 0 -4097789.427 -12128814.266 -22001488.276 10 0 60016 69300.00000 0 -1435857.435 -11344102.149 -22745966.340 10 0 60016 70200.00000 0 1339023.286 -10743643.422 -23046141.268 10 0 60016 71100.00000 0 4159020.989 -10347093.588 -22896375.830 10 0 60016 72000.00000 0 6953894.865 -10161933.022 -22299858.561 10 0 60016 72900.00000 0 9653695.851 -10183216.654 -21268520.172 10 0 60016 73800.00000 0 12191453.733 -10393869.133 -19822775.707 10 0 60016 74700.00000 0 14505737.965 -10765510.469 -17991099.389 10 0 60016 75600.00000 0 16542985.778 -11259774.495 -15809442.423 10 0 60016 76500.00000 0 18259501.639 -11830061.719 -13320507.061 10 0 60016 77400.00000 0 19623046.584 -12423650.046 -10572892.959 10 0 60016 78300.00000 0 20613953.812 -12984072.242 -7620134.020 10 0 60016 79200.00000 0 21225727.142 -13453658.424 -4519645.807 10 0 60016 80100.00000 0 21465100.843 -13776135.614 -1331604.896 10 0 60016 81000.00000 0 21351561.818 -13899174.825 1882217.561 10 0 60016 81900.00000 0 20916357.373 -13776779.077 5059645.491 10 0 60016 82800.00000 0 20201032.761 -13371413.045 8139288.177 10 0 60016 83700.00000 0 19255561.635 -12655786.326 11061709.181 10 0 60016 84600.00000 0 18136148.664 -11614217.071 13770552.779 10 0 60016 85500.00000 0 16902796.369 -10243520.152 16213608.003 99